Location: Waco, TX
(31.5480°N, 97.1670°W)
Time: 02:45:19
(UTC-05:00)

ISS - Pass Details

Date: 14 June 2018
Orbit: 402 x 406 km, 51.6° (Epoch: 20 June)

Event Time Altitude Azimuth Distance (km) Brightness Sun altitude
Rises 19:49:45 0° 316° (NW) 2,319 1.5 7.8°
Reaches altitude 10° 19:51:50 10° 317° (NW) 1,456 0.5 7.4°
Maximum altitude 19:55:06 84° 45° (NE) 408 -3.7 6.8°
Drops below altitude 10° 19:58:20 10° 134° (SE) 1,446 -1.6 6.2°
Sets 20:00:24 0° 135° (SE) 2,301 -0.6 5.8°
